Regional Weather Roundup
Issued by NWS Kansas City/Pleasant Hill, MO

Home | Current Version | Previous Version | Text Only | Print | Product List | Glossary On
Versions: 1 2 3 4 5 6 7 8 9 10 11 12 13 14 15 16 17 18 19 20 21 22 23 24 25 26 27 28 29 30 31 32 33 34 35 36 37 38 39 40 41 42 43 44 45 46 47 48 49 50
000
ASUS43 KEAX 122111
RWREAX

WEATHER ROUNDUP FOR EASTERN KANSAS AND NORTHWEST MISSOURI
NATIONAL WEATHER SERVICE KANSAS CITY/PLEASANT HILL MO
400 PM CDT SAT JUL 12 2014

KSZ040-057-103>105-MOZ028-029-037-043-122200-
...KANSAS CITY METROPOLITAN AREA...

CITY           SKY/WX    TMP DP  RH WIND       PRES   REMARKS
K.C. INTL      MOSUNNY   91  73  55 S10       30.00F HX  99
K.C. DOWNTOWN  MOSUNNY   94  71  47 S13       29.98F HX 101
LEES SUMMIT    SUNNY     91  71  51 SW14      30.02F HX  97
OLATHE - IXD   SUNNY     94  66  39 SW18      30.02F HX  97
OLATHE - OJC   SUNNY     92  68  45 SW14      30.01F HX  96
LAWRENCE       MOSUNNY   95  67  39 SW14G24   29.98F HX  99

$$

MOZ001>008-011>017-020>025-030>033-038>040-044>046-053-054-122200-
...NORTHERN AND CENTRAL MISSOURI...

CITY           SKY/WX    TMP DP  RH WIND       PRES   REMARKS
ST. JOSEPH     SUNNY     91  73  55 S15       29.97F HX  99
MOSBY          PTCLDY    91  70  49 S7        29.99F HX  97
WARRENSBURG    SUNNY     90  70  51 S9        30.03S HX  95
WHITEMAN AFB   NOT AVBL
CLINTON        SUNNY     90  73  58 S9        30.05F HX  98
SEDALIA        SUNNY     92  74  55 S16       30.05F HX 101
WARSAW         NOT AVBL
MARSHALL         N/A     91  77  62 S10       30.03F HX 105
CHILLICOTHE      N/A     91  73  55 S10       29.99F HX  99
MOBERLY        PTSUNNY   91  70  49 S10       30.03F HX  97
KIRKSVILLE     MOSUNNY   88  73  61 SW10      30.01F HX  95

$$

MOZ041-047>049-056>058-063>065-088>090-097-122200-
...EASTERN AND SOUTHERN MISSOURI...

CITY           SKY/WX    TMP DP  RH WIND       PRES   REMARKS
ST. LOUIS INTL PTSUNNY   96  66  37 SW12      30.04F HX  99
SPIRIT OF STL  PTSUNNY   94  69  44 SW12      30.03F HX  99
COLUMBIA       MOSUNNY   90  72  55 S14       30.05F HX  97
JEFFERSON CITY MOSUNNY   91  70  49 S13       30.03F HX  96
MEXICO         PTSUNNY   90  79  70 SW9       30.04F HX 105
HANNIBAL       PTSUNNY   91  68  46 SW12      30.02F HX  95
ROLLA          MOSUNNY   93  66  40 W9        30.08F HX  96
LEBANON        SUNNY     91  64  40 SW9       30.11F HX  93
OSAGE BEACH    MOSUNNY   91  70  49 SW7       30.07F HX  97
SPRINGFIELD    MOSUNNY   90  66  45 SW12      30.11F HX  92
BRANSON        PTSUNNY   93  70  46 SW6       30.14F HX  99
NEVADA         SUNNY     90  70  51 S8        30.07S HX  95
JOPLIN         MOSUNNY   94  66  39 S17G23    30.08F HX  97
WEST PLAINS    MOSUNNY   89  69  51 SW7       30.14S HX  93

$$

IAZ060-094-KSZ022-034>040-054-083-096-NEZ052-066-093-122200-
...KANSAS...SOUTHEAST NEBRASKA AND IOWA...

CITY           SKY/WX    TMP DP  RH WIND       PRES   REMARKS
TOPEKA         SUNNY     96  65  35 SW12G23   29.98F HX  98
MANHATTAN      MOSUNNY   98  65  33 S14       29.96S HX 101
EMPORIA        SUNNY     92  66  42 SW17      30.02F HX  94
CHANUTE        MOSUNNY   92  68  45 S14G23    30.05F HX  96
WICHITA        MOSUNNY   92  65  40 SW17      30.02S HX  94
OMAHA          PTSUNNY   83  71  67 N15       29.97S
LINCOLN        MOSUNNY   90  73  57 N13       29.98S HX  98
FALLS CITY     MOSUNNY   96  70  42 SW14G23   29.93F HX 102
LAMONI         MOSUNNY   88  74  63 S17       29.96F HX  96
DES MOINES     PTSUNNY   88  74  63 NW7       29.93F HX  96

$$




USA.gov is the U.S. government's official web portal to all federal, state and local government web resources and services.